Weather History for Keahole Point, HI

Change the Weather History Date:

Sunday, March 18, 2012

  Actual Average Record
Temperature  
Mean Temperature 74 °F -  
Max Temperature 79 °F 79 °F 89 °F (1986)
Min Temperature 69 °F 67 °F 66 °F (1983)
Cooling Degree Days 9    
Growing Degree Days 24 (Base 50)    
Moisture  
Dew Point 62 °F    
Average Humidity 65    
Maximum Humidity 76    
Minimum Humidity 52    
Precipitation  
Precipitation 0.00 in - - ()
Sea Level Pressure  
Sea Level Pressure 30.05 in    
Wind  
Wind Speed 7 mph (South)    
Max Wind Speed 9 mph    
Max Gust Speed -    
Visibility 10 miles    
Events      
Averages and records for this station are not official NWS values.
T = Trace of Precipitation, MM = Missing Value Source: NWS Daily Summary

Daily Weather History Graph

Daily Weather History Graph

Search for Another Location

Airport:

Trip Planner

Search our weather history database for the weather conditions in past years. The results will help you decide how hot, cold, wet, or windy it might be!

Date:

Astronomy

Mar. 18, 2012 Rise Set
Actual Time 6:29 AM HST 6:34 PM HST
Civil Twilight 6:07 AM HST 6:56 PM HST
Nautical Twilight 5:41 AM HST 7:22 PM HST
Astronomical Twilight 5:16 AM HST 7:47 PM HST
Moon 3:48 AM HST (3/18) 3:35 PM HST (3/18)
Length of Visible Light 12h 49m
Length of Day
12h 05m
Waning Crescent, 13% of the Moon is Illuminated
Mar 18
Waning Crescent
Mar 22
New
Mar 30
First Quarter
Apr 6
Full
Apr 13
Last Quarter

Hourly Weather History & Observations

Time (HST) Temp. Dew Point Humidity Pressure Visibility Wind Dir Wind Speed Gust Speed Precip Events Conditions
12:53 AM 70.0 °F 57.9 °F 65% 30.05 in 10.0 mi NE 4.6 mph - N/A   Clear
1:53 AM 73.0 °F 57.9 °F 59% 30.04 in 10.0 mi East 5.8 mph - N/A   Clear
2:53 AM 69.1 °F 59.0 °F 70% 30.02 in 10.0 mi ESE 6.9 mph - N/A   Clear
3:53 AM 70.0 °F 61.0 °F 73% 30.01 in 10.0 mi SE 5.8 mph - N/A   Clear
4:53 AM 70.0 °F 61.0 °F 73% 30.01 in 10.0 mi SE 8.1 mph - N/A   Clear
5:53 AM 70.0 °F 60.1 °F 71% 30.03 in 10.0 mi SE 9.2 mph - N/A   Clear
6:53 AM 71.1 °F 59.0 °F 66% 30.06 in 10.0 mi ESE 9.2 mph - N/A   Clear
7:53 AM 75.0 °F 57.9 °F 55% 30.07 in 10.0 mi SE 9.2 mph - N/A   Clear
8:53 AM 78.1 °F 59.0 °F 52% 30.09 in 10.0 mi South 8.1 mph - N/A   Clear
9:53 AM 78.1 °F 62.1 °F 58% 30.09 in 10.0 mi WSW 8.1 mph - N/A   Clear
10:53 AM 78.1 °F 63.0 °F 60% 30.09 in 10.0 mi West 8.1 mph - N/A   Clear
11:53 AM 78.1 °F 62.1 °F 58% 30.07 in 10.0 mi WNW 8.1 mph - N/A   Overcast
12:53 PM 77.0 °F 64.0 °F 64% 30.06 in 10.0 mi Variable 3.5 mph - N/A   Overcast
1:53 PM 77.0 °F 64.0 °F 64% 30.04 in 10.0 mi WSW 8.1 mph - N/A   Overcast
2:53 PM 79.0 °F 64.0 °F 60% 30.03 in 10.0 mi WSW 8.1 mph - N/A   Overcast
3:53 PM 77.0 °F 63.0 °F 62% 30.03 in 10.0 mi South 6.9 mph - N/A   Overcast
4:53 PM 77.0 °F 62.1 °F 60% 30.03 in 10.0 mi South 9.2 mph - N/A   Overcast
5:53 PM 75.9 °F 63.0 °F 64% 30.04 in 10.0 mi South 6.9 mph - N/A   Overcast
6:53 PM 75.9 °F 63.0 °F 64% 30.05 in 10.0 mi South 5.8 mph - N/A   Overcast
7:53 PM 75.9 °F 63.0 °F 64% 30.06 in 10.0 mi WSW 3.5 mph - N/A   Overcast
8:53 PM 75.9 °F 64.0 °F 67% 30.07 in 10.0 mi NW 4.6 mph - N/A   Overcast
9:53 PM 75.0 °F 64.9 °F 71% 30.07 in 10.0 mi North 6.9 mph - N/A   Mostly Cloudy
10:53 PM 75.0 °F 66.0 °F 73% 30.07 in 10.0 mi NW 8.1 mph - N/A   Mostly Cloudy
11:53 PM 73.9 °F 66.0 °F 76% 30.06 in 10.0 mi NNW 5.8 mph - N/A   Clear